[[{"header":{"parameterUnit":"m.s-1","parameterCategory":1,"la1":30.2991,"la2":30.254,"lo1":-89.0895,"lo2":-89.0444,"dy":0.0017,"dx":0.0017,"nx":28,"ny":28,"refTime":"2025-05-20T21:00:00:Z","depth":0,"parameterNumber":2,"parameterNumberName":"U-component_of_WINDS"},"data":[0,0,0,0,0,0,0,0,0,0,0,0,0,0,0,0,0,0,0,0,0,0,0,0,0,0,0,0,0,0,0,0,0,0,0,0,0,0,0,0,0,0,0,0,0,0,0,0,0,0,0,0,0,0,0,0,0,0,0.1188,0.1188,0,0.1227,0.1227,0.1227,0.1235,0.1235,0.1235,0.1234,0.1273,0.1274,0.1275,0,0,0,0,0,0,0,0,0,0,0,0,0,0.1118,0.1119,0.1187,0.1188,0.1188,0.1226,0.1227,0.1228,0.1235,0.1235,0.1235,0.1234,0.1273,0.1274,0.1276,0,0,0,0,0,0,0,0,0,0,0,0,0,0.1151,0.1119,0.1187,0.1197,0.1198,0.1226,0.1227,0.1228,0.1235,0.1235,0.1235,0.1234,0.1272,0.1274,0.1276,0.1297,0,0,0.1282,0.1283,0,0,0,0,0,0,0,0,0.1149,0.1154,0.1195,0.1196,0.1198,0.1226,0.1216,0.1251,0.1236,0.1221,0.1234,0.1234,0.1257,0.1261,0.1269,0.1299,0.13,0.1282,0.1283,0.1284,0.1285,0,0,0,0,0,0,0,0.1147,0.1152,0.1203,0.1196,0.1197,0.1199,0.1203,0.1223,0.1241,0.1222,0.1223,0.1228,0.1258,0.1267,0.127,0.1301,0.1282,0.1284,0.1285,0.1286,0.1349,0.1349,0,0,0,0,0,0,0.1143,0.115,0.1202,0.1204,0.1172,0.12,0.1205,0.1217,0.1241,0.1244,0.1228,0.1228,0.1264,0.1267,0.1271,0.1297,0.1284,0.1286,0.1287,0.1348,0.1349,0.1349,0,0,0,0,0,0,0.1142,0.1148,0.12,0.1177,0.1184,0.1202,0.1215,0.1218,0.1227,0.1245,0.1248,0.1234,0.1264,0.1268,0.129,0.1298,0.1287,0.1288,0.1348,0.1348,0.1349,0.1349,0,0,0,0,0,0,0.114,0.1147,0.1156,0.1178,0.1185,0.1219,0.1216,0.1219,0.1231,0.1231,0.1252,0.1255,0.1264,0.1287,0.1292,0.1301,0.129,0.1347,0.1348,0.1349,0.1348,0.135,0.1351,0,0,0,0,0,0.1137,0.1154,0.1156,0.1163,0.1197,0.122,0.1224,0.1234,0.1231,0.124,0.1251,0.1254,0.1297,0.1289,0.1295,0.1304,0.1346,0.1348,0.1349,0.1348,0.1349,0.1351,0,0,0,0,0,0,0.1133,0.1157,0.116,0.1185,0.12,0.1221,0.1232,0.1236,0.1252,0.1252,0.1263,0.1268,0.1289,0.1299,0.129,0.1325,0.1321,0.1323,0.1319,0.132,0.1321,0.1319,0.1292,0,0,0,0,0,0.1135,0.1152,0.1172,0.1192,0.1199,0.1214,0.1225,0.1231,0.1248,0.1254,0.1267,0.1283,0.1299,0.131,0.1327,0.1349,0.1354,0.1358,0.136,0.1361,0.1363,0.1375,0.1377,0.1353,0.1353,0.1353,0,0,0.1139,0.1154,0.1164,0.1191,0.1204,0.1221,0.122,0.1238,0.125,0.1257,0.1278,0.1288,0.1306,0.1328,0.1339,0.1337,0.137,0.1362,0.1363,0.1364,0.1376,0.1378,0.138,0.1354,0.1354,0.1353,0,0,0.1155,0.1169,0.1187,0.1199,0.1219,0.1228,0.1232,0.1253,0.126,0.1282,0.1287,0.1301,0.133,0.1342,0.1352,0.1372,0.1375,0.1377,0.1383,0.1395,0.1397,0.1398,0.1405,0.1408,0.1378,0.1378,0.1378,0,0.1158,0.1184,0.1195,0.1213,0.1224,0.1231,0.1248,0.126,0.1283,0.1291,0.1289,0.1324,0.1337,0.1362,0.1366,0.1374,0.1379,0.1375,0.1396,0.1397,0.1399,0.1406,0.1408,0.1378,0.1378,0.1378,0.1378,0,0.1186,0.1204,0.1216,0.1239,0.1252,0.1269,0.1282,0.1293,0.1298,0.1308,0.133,0.1344,0.1364,0.137,0.1375,0.1395,0.1394,0.1393,0.1389,0.1401,0.1408,0.1411,0.1379,0.1379,0.1379,0.1379,0,0,0.1202,0.123,0.1234,0.1245,0.1266,0.128,0.1297,0.1316,0.1326,0.1341,0.1356,0.1379,0.1379,0.139,0.1397,0.1407,0.1421,0.1405,0.1406,0.1408,0.1444,0.1444,0.1447,0.1423,0.1423,0.1424,0.1442,0,0.1221,0.1253,0.1263,0.129,0.1306,0.1312,0.1327,0.1341,0.135,0.1365,0.1374,0.1391,0.1389,0.1396,0.1406,0.1417,0.1429,0.1416,0.1436,0.1437,0.1432,0.1451,0.1451,0.1468,0.1445,0.1445,0.1446,0,0.1248,0.1264,0.1293,0.1312,0.1319,0.1332,0.135,0.1364,0.138,0.1386,0.1398,0.1403,0.1421,0.1415,0.1439,0.143,0.1439,0.1445,0.1446,0.1449,0.1442,0.1454,0.1474,0.1477,0.145,0.145,0.1449,0,0.1256,0.1285,0.1306,0.1315,0.1337,0.1346,0.1356,0.1371,0.1382,0.1397,0.1404,0.1421,0.1431,0.1443,0.1452,0.1448,0.1475,0.1471,0.148,0.148,0.1486,0.1486,0.1508,0.1491,0.1491,0.1491,0.1491,0,0.1277,0.1294,0.131,0.1323,0.1342,0.1353,0.1371,0.1381,0.1394,0.1408,0.1414,0.1427,0.1438,0.1452,0.1459,0.1478,0.1482,0.1487,0.1488,0.1486,0.1486,0.1493,0.1492,0.1492,0.1492,0.1492,0.1491,0,0.129,0.1302,0.1325,0.1344,0.1349,0.1362,0.1378,0.139,0.1399,0.1417,0.1422,0.1435,0.1452,0.1463,0.1484,0.1489,0.1509,0.151,0.1504,0.1505,0.1514,0.1513,0.1542,0.1546,0.1526,0.1526,0.1526,0,0.1302,0.1316,0.1336,0.1347,0.1356,0.1373,0.1384,0.1394,0.1405,0.1423,0.1433,0.145,0.1465,0.1491,0.1503,0.1519,0.1521,0.153,0.1523,0.152,0.1521,0.152,0.1521,0.1531,0.1531,0.1531,0.1531,0,0.1323,0.1328,0.1344,0.1362,0.1375,0.139,0.1404,0.1412,0.1424,0.1436,0.1454,0.1465,0.1486,0.1503,0.152,0.1529,0.1532,0.1533,0.1536,0.1534,0.153,0.1533,0.1507,0.1533,0.1532,0.1532,0.1532,0.1532,0.1337,0.1349,0.1365,0.1382,0.1394,0.1407,0.142,0.143,0.1445,0.1464,0.1469,0.1487,0.1501,0.1524,0.1534,0.1547,0.1546,0.155,0.1552,0.1553,0.1553,0.1528,0.155,0.155,0.155,0.155,0.155,0,0.1358,0.1369,0.1385,0.1405,0.1418,0.142,0.1435,0.1446,0.1463,0.1476,0.149,0.151,0.1526,0.1538,0.1555,0.1563,0.1565,0.1567,0.1567,0.1569,0.1553,0.1549,0.1566,0.1566,0.1566,0.1566,0.1566,0.1566,0.1371,0.1391,0.1398,0.1424,0.1434,0.1453,0.1461,0.1473,0.1484,0.1506,0.1519,0.1528,0.154,0.1557,0.1572,0.1575,0.1581,0.1583,0.1586,0.1572,0.157,0.1568,0.1564,0.1584,0.1584,0.1601,0.1601,0.1601]},{"header":{"parameterUnit":"m.s-1","parameterCategory":1,"la1":30.2991,"la2":30.254,"lo1":-89.0895,"lo2":-89.0444,"dy":0.0017,"dx":0.0017,"nx":28,"ny":28,"refTime":"2025-05-20T21:00:00:Z","depth":0,"parameterNumber":3,"parameterNumberName":"V-component_of_WINDS"},"data":[0,0,0,0,0,0,0,0,0,0,0,0,0,0,0,0,0,0,0,0,0,0,0,0,0,0,0,0,0,0,0,0,0,0,0,0,0,0,0,0,0,0,0,0,0,0,0,0,0,0,0,0,0,0,0,0,0,0,6.5626,6.5626,0,6.563,6.563,6.563,6.5585,6.5584,6.5582,6.5581,6.5584,6.5585,6.5586,0,0,0,0,0,0,0,0,0,0,0,0,0,6.5579,6.558,6.5626,6.5626,6.5626,6.563,6.563,6.563,6.5585,6.5584,6.5582,6.5581,6.5583,6.5585,6.5586,0,0,0,0,0,0,0,0,0,0,0,0,0,6.5593,6.558,6.5626,6.5604,6.5602,6.563,6.563,6.563,6.5585,6.5583,6.5582,6.558,6.5583,6.5585,6.5586,6.5635,0,0,6.5592,6.5593,0,0,0,0,0,0,0,0,6.5592,6.5595,6.5607,6.5606,6.5604,6.5605,6.5614,6.5632,6.5586,6.5592,6.5581,6.5579,6.5592,6.5593,6.5598,6.5635,6.5635,6.5592,6.5593,6.5594,6.5594,0,0,0,0,0,0,0,6.5591,6.5594,6.5628,6.5608,6.5605,6.5594,6.5594,6.5617,6.5602,6.5591,6.5588,6.5589,6.5591,6.5596,6.5598,6.5635,6.5592,6.5594,6.5595,6.5595,6.5713,6.5715,0,0,0,0,0,0,6.5593,6.5594,6.5628,6.5628,6.5593,6.5596,6.5596,6.5607,6.5602,6.5599,6.5591,6.5587,6.5594,6.5595,6.5597,6.5654,6.5594,6.5596,6.5597,6.5711,6.5713,6.5715,0,0,0,0,0,0,6.5593,6.5597,6.5627,6.561,6.5613,6.5599,6.5611,6.5608,6.5613,6.5602,6.5598,6.5599,6.5593,6.5595,6.5626,6.5654,6.5596,6.5598,6.5708,6.5712,6.5714,6.5768,0,0,0,0,0,0,6.5591,6.5597,6.5615,6.5611,6.5614,6.5656,6.5613,6.5609,6.5616,6.5612,6.5609,6.5606,6.5591,6.5624,6.5628,6.5655,6.56,6.5706,6.571,6.5713,6.5764,6.5773,6.578,0,0,0,0,0,6.559,6.563,6.5616,6.5621,6.5637,6.5658,6.566,6.5642,6.5619,6.5637,6.563,6.5606,6.565,6.5627,6.5632,6.566,6.5704,6.5709,6.5713,6.576,6.5771,6.578,0,0,0,0,0,0,6.5636,6.5628,6.5614,6.5653,6.5657,6.565,6.5673,6.5654,6.5664,6.5659,6.5636,6.5636,6.5671,6.5668,6.5643,6.5707,6.5673,6.5679,6.5707,6.5717,6.5725,6.5725,6.5601,0,0,0,0,0,6.5652,6.567,6.5662,6.5697,6.57,6.5686,6.5695,6.5681,6.5684,6.5685,6.568,6.5683,6.5697,6.5707,6.572,6.5764,6.5762,6.5785,6.5793,6.58,6.5805,6.5829,6.5839,6.573,6.573,6.573,0,0,6.5682,6.568,6.5693,6.5707,6.5708,6.5727,6.5688,6.571,6.5724,6.5688,6.5717,6.5714,6.5716,6.5754,6.577,6.5753,6.5835,6.5806,6.5811,6.5813,6.5834,6.5845,6.5854,6.5733,6.5733,6.5732,0,0,6.5749,6.5749,6.5779,6.5782,6.5784,6.5775,6.5783,6.5779,6.5776,6.5805,6.5779,6.5796,6.5821,6.5823,6.5828,6.5897,6.5876,6.5902,6.5945,6.5968,6.5976,6.5984,6.6008,6.6018,6.5907,6.5907,6.5907,0,6.5786,6.5815,6.5797,6.5821,6.5828,6.5798,6.5828,6.5831,6.5837,6.5843,6.5823,6.5855,6.5854,6.5893,6.591,6.5915,6.5922,6.5902,6.5977,6.5984,6.5991,6.6014,6.6023,6.5911,6.591,6.591,6.591,0,6.5862,6.5882,6.5906,6.5914,6.5924,6.5951,6.5937,6.5949,6.5935,6.5928,6.5958,6.5956,6.5969,6.5977,6.5963,6.6014,6.6003,6.5981,6.5946,6.6004,6.6026,6.6035,6.5915,6.5914,6.5913,6.5912,0,0,6.5956,6.5955,6.5964,6.5968,6.5969,6.5985,6.6011,6.6023,6.6034,6.604,6.6061,6.6084,6.6064,6.6069,6.6056,6.6076,6.6131,6.6051,6.6051,6.6066,6.6188,6.6204,6.6215,6.6118,6.6119,6.6121,6.6187,0,6.602,6.6065,6.605,6.6096,6.6115,6.6087,6.611,6.6113,6.6108,6.6122,6.6116,6.6133,6.6105,6.6108,6.6127,6.6121,6.6155,6.6116,6.6137,6.6138,6.6137,6.6226,6.6243,6.6306,6.6196,6.6197,6.6198,0,6.6101,6.6112,6.616,6.6159,6.6166,6.6187,6.6198,6.6213,6.6216,6.6211,6.6218,6.62,6.6226,6.6192,6.6226,6.62,6.6208,6.6206,6.6208,6.6209,6.6171,6.6229,6.6326,6.6335,6.6211,6.621,6.6209,0,6.6165,6.6191,6.6224,6.6228,6.6228,6.6243,6.6244,6.6246,6.6255,6.6264,6.627,6.6282,6.6289,6.6298,6.6284,6.6261,6.6321,6.6286,6.6317,6.6318,6.6331,6.633,6.643,6.6337,6.6337,6.6336,6.6336,0,6.6239,6.6269,6.6253,6.6272,6.6306,6.6288,6.6322,6.6319,6.6321,6.634,6.6317,6.6334,6.6315,6.6331,6.6321,6.6351,6.6354,6.6351,6.6347,6.6353,6.6353,6.6357,6.6352,6.6339,6.6338,6.6338,6.6337,0,6.6316,6.6306,6.6339,6.6337,6.6338,6.6362,6.636,6.6378,6.6372,6.6396,6.64,6.639,6.6408,6.6395,6.6413,6.6406,6.6446,6.6437,6.6445,6.6442,6.6474,6.6472,6.658,6.6593,6.6492,6.6493,6.6494,0,6.6363,6.6386,6.6387,6.6398,6.6401,6.6419,6.6429,6.6413,6.6424,6.643,6.6448,6.6464,6.6476,6.6506,6.6499,6.6513,6.6504,6.6541,6.6505,6.651,6.6504,6.6503,6.6505,6.6548,6.6549,6.655,6.6551,0,6.6448,6.6442,6.6457,6.6471,6.6484,6.6493,6.6501,6.6512,6.6496,6.6509,6.6528,6.6537,6.6556,6.6572,6.6584,6.6584,6.6565,6.6562,6.657,6.6575,6.6579,6.6578,6.6464,6.6559,6.6559,6.6558,6.6557,6.6557,6.6511,6.6531,6.6535,6.6553,6.6557,6.6566,6.6583,6.6579,6.6595,6.6609,6.6599,6.6621,6.6625,6.6638,6.6641,6.6658,6.6643,6.6654,6.6657,6.666,6.6665,6.6577,6.666,6.666,6.666,6.6659,6.6659,0,6.6595,6.6597,6.6614,6.6626,6.664,6.6623,6.6631,6.6643,6.6663,6.6669,6.6682,6.6704,6.672,6.6715,6.673,6.6744,6.6736,6.6748,6.6747,6.6747,6.6678,6.6669,6.6755,6.6755,6.6755,6.6755,6.6755,6.6755,6.6641,6.6673,6.6668,6.6702,6.6704,6.6726,6.6732,6.674,6.6744,6.677,6.6784,6.6781,6.6783,6.6797,6.6811,6.6809,6.6816,6.6832,6.6827,6.6762,6.6752,6.6743,6.6735,6.6833,6.6833,6.6895,6.6896,6.6896]}]]